FW4559 Weather Reports


time (UTC)temp
C
wind
direction
speed
KPH
gust
KPH
rain 1hr
cm
rain 24hr
cm
rain mn
cm
humidity
%
barometer
mb
20260831200038 25 205 0.0 4.8 0.00 0.03 0.03 76 1019.2
20260831195537 24 171 0.0 6.4 0.00 0.03 0.03 77 1019.3
20260831195039 24 190 1.6 4.8 0.00 0.03 0.03 79 1019.4
20260831194549 24 166 0.0 11.3 0.00 0.03 0.03 79 1019.4
20260831194038 24 190 0.0 12.9 0.00 0.03 0.03 79 1019.4
20260831193536 25 245 3.2 12.9 0.00 0.03 0.03 77 1019.5
20260831193035 25 142 1.6 8.0 0.00 0.03 0.03 77 1019.6
20260831192535 25 120 1.6 9.7 0.00 0.03 0.03 75 1019.6
20260831192034 26 190 0.0 12.9 0.00 0.03 0.03 73 1019.7
20260831191536 26 149 0.0 12.9 0.00 0.03 0.03 70 1019.7
20260831191039 27 192 1.6 9.7 0.00 0.03 0.03 69 1019.7
20260831190534 27 124 0.0 3.2 0.00 0.03 0.03 66 1019.7
20260831190034 27 178 0.0 3.2 0.00 0.03 0.03 65 1019.8
20260831185534 27 191 0.0 4.8 0.00 0.03 0.03 66 1019.8
20260831185034 27 240 1.6 4.8 0.00 0.03 0.03 66 1019.8
20260831184533 27 166 0.0 1.6 0.00 0.03 0.03 67 1019.7
20260831184032 26 153 0.0 1.6 0.00 0.03 0.03 68 1019.8
20260831183532 26 144 0.0 3.2 0.00 0.03 0.03 67 1019.8
20260831183032 26 127 0.0 4.8 0.00 0.03 0.03 67 1019.8
20260831182532 26 198 0.0 4.8 0.00 0.03 0.03 66 1019.7
20260831182035 26 105 0.0 4.8 0.00 0.03 0.03 66 1019.7
20260831181532 26 150 0.0 8.0 0.00 0.03 0.03 65 1019.7
20260831181031 27 51 0.0 9.7 0.00 0.03 0.03 62 1019.7
20260831180530 27 338 0.0 8.0 0.00 0.03 0.03 59 1019.7
20260831180030 27 53 1.6 8.0 0.00 0.03 0.03 60 1019.8
20260831175530 27 127 0.0 8.0 0.00 0.03 0.03 63 1019.9
20260831175030 27 350 1.6 8.0 0.00 0.03 0.03 62 1020.0
20260831174532 27 354 1.6 4.8 0.00 0.03 0.03 64 1020.1
20260831174029 26 20 0.0 6.4 0.00 0.03 0.03 68 1020.1
20260831173530 26 20 0.0 6.4 0.00 0.03 0.03 67 1020.2
20260831173028 26 84 0.0 6.4 0.00 0.03 0.03 67 1020.1
20260831172529 26 343 3.2 11.3 0.00 0.03 0.03 66 1020.1
20260831172029 26 48 0.0 11.3 0.00 0.03 0.03 68 1020.2
20260831171528 26 346 3.2 9.7 0.00 0.03 0.03 67 1020.4
20260831171028 26 9 1.6 9.7 0.00 0.03 0.03 66 1020.4
20260831170527 26 357 0.0 9.7 0.00 0.03 0.03 66 1020.4
20260831170027 26 20 1.6 9.7 0.00 0.03 0.03 65 1020.3
20260831165527 27 79 0.0 4.8 0.00 0.03 0.03 66 1020.3
20260831165026 27 8 1.6 4.8 0.00 0.03 0.03 63 1020.3
20260831164526 27 115 0.0 1.6 0.00 0.03 0.03 68 1020.4
20260831164026 27 115 0.0 4.8 0.00 0.03 0.03 63 1020.4
20260831163526 27 9 0.0 9.7 0.00 0.03 0.03 62 1020.4
20260831163030 28 334 3.2 9.7 0.00 0.03 0.03 58 1020.4
20260831162525 28 348 0.0 3.2 0.00 0.03 0.03 61 1020.4
20260831162023 28 76 0.0 9.7 0.00 0.03 0.03 63 1020.4
20260831161530 28 23 3.2 9.7 0.00 0.03 0.03 57 1020.5
20260831161023 27 108 0.0 3.2 0.00 0.03 0.03 63 1020.5
20260831160523 27 340 0.0 4.8 0.00 0.03 0.03 64 1020.6
20260831160022 27 340 0.0 4.8 0.00 0.03 0.03 61 1020.6
20260831155523 27 359 0.0 3.2 0.00 0.03 0.03 61 1020.6
20260831155022 28 271 0.0 1.6 0.00 0.03 0.03 59 1020.6
20260831154520 27 252 0.0 1.6 0.00 0.03 0.03 63 1020.6
20260831154023 26 315 0.0 6.4 0.00 0.03 0.03 65 1020.7
20260831153520 26 274 0.0 6.4 0.00 0.03 0.03 68 1020.7
20260831153019 26 338 0.0 9.7 0.00 0.03 0.03 67 1020.7
20260831152519 26 7 3.2 9.7 0.00 0.03 0.03 65 1020.6
20260831152021 26 51 0.0 9.7 0.00 0.03 0.03 68 1020.6
20260831151521 25 43 0.0 9.7 0.00 0.03 0.03 67 1020.7
20260831151020 25 8 3.2 8.0 0.00 0.03 0.03 66 1020.6
20260831150517 25 344 1.6 9.7 0.00 0.03 0.03 66 1020.6
20260831150016 25 1 0.0 11.3 0.00 0.03 0.03 66 1020.6
20260831145516 26 343 3.2 11.3 0.00 0.03 0.03 67 1020.5
20260831145016 26 352 0.0 4.8 0.00 0.03 0.03 71 1020.5
20260831144515 26 1 1.6 4.8 0.00 0.03 0.03 71 1020.5
20260831144015 26 11 0.0 3.2 0.00 0.03 0.03 71 1020.4
20260831143515 26 349 0.0 3.2 0.00 0.03 0.03 70 1020.5
20260831143014 27 1 0.0 1.6 0.00 0.03 0.03 69 1020.5
20260831142516 27 221 0.0 1.6 0.00 0.03 0.03 71 1020.4
20260831142010 26 221 0.0 0.0 0.03 0.03 0.03 74 1020.4
20260831141510 26 221 0.0 1.6 0.03 0.03 0.03 75 1020.4
20260831141008 25 221 0.0 1.6 0.03 0.03 0.03 78 1020.3
20260831140510 25 221 0.0 1.6 0.03 0.03 0.03 78 1020.4
20260831140005 25 221 0.0 1.6 0.03 0.03 0.03 78 1020.5
20260831135504 25 221 0.0 0.0 0.03 0.03 0.03 81 1020.5
20260831135003 24 221 0.0 0.0 0.03 0.03 0.03 83 1020.5
20260831134502 23 221 0.0 1.6 0.03 0.03 0.03 85 1020.6
20260831134059 23 221 0.0 1.6 0.03 0.03 0.03 87 1020.6
20260831133558 22 222 0.0 1.6 0.03 0.03 0.03 88 1020.7
20260831133057 22 221 0.0 1.6 0.03 0.03 0.03 91 1020.7
20260831132556 22 221 0.0 1.6 0.03 0.03 0.03 93 1020.7
20260831132055 21 221 0.0 0.0 0.00 0.00 0.00 95 1020.8
20260831131556 20 222 0.0 0.0 0.00 0.00 0.00 96 1020.8
20260831131053 20 221 0.0 0.0 0.00 0.00 0.00 96 1020.8
20260831130551 20 221 0.0 0.0 0.00 0.00 0.00 96 1020.8
20260831130104 20 221 0.0 0.0 0.00 0.00 0.00 96 1020.8
20260831125549 19 221 0.0 0.0 0.00 0.00 0.00 96 1020.8
20260831125048 18 221 0.0 0.0 0.00 0.00 0.00 96 1020.7
20260831124547 18 221 0.0 0.0 0.00 0.00 0.00 96 1020.8
20260831124046 18 221 0.0 0.0 0.00 0.00 0.00 96 1020.7
20260831123546 17 221 0.0 0.0 0.00 0.00 0.00 96 1020.6
20260831123045 17 221 0.0 0.0 0.00 0.00 0.00 96 1020.7
20260831122544 16 222 0.0 0.0 0.00 0.00 0.00 96 1020.6
20260831122048 16 221 0.0 0.0 0.00 0.00 0.00 96 1020.6
20260831121545 15 222 0.0 0.0 0.00 0.00 0.00 96 1020.7
20260831121044 15 222 0.0 0.0 0.00 0.00 0.00 96 1020.7
20260831120544 15 222 0.0 0.0 0.00 0.00 0.00 96 1020.6
20260831120044 15 221 0.0 0.0 0.00 0.00 0.00 96 1020.8
20260831115543 15 222 0.0 0.0 0.00 0.00 0.00 96 1020.7
20260831115043 15 222 0.0 0.0 0.00 0.00 0.00 96 1020.8
20260831114543 15 221 0.0 0.0 0.00 0.00 0.00 96 1020.7
20260831114043 15 221 0.0 0.0 0.00 0.00 0.00 96 1020.6
20260831113542 15 222 0.0 0.0 0.00 0.00 0.00 96 1020.7
20260831113041 15 221 0.0 0.0 0.00 0.00 0.00 96 1020.6
20260831112541 15 222 0.0 0.0 0.00 0.00 0.00 96 1020.6
20260831112040 15 222 0.0 0.0 0.00 0.00 0.00 96 1020.6
20260831111540 15 221 0.0 0.0 0.00 0.00 0.00 96 1020.5
20260831111039 15 221 0.0 0.0 0.00 0.00 0.00 96 1020.3
20260831110538 15 222 0.0 0.0 0.00 0.00 0.00 96 1020.4
20260831110040 15 222 0.0 0.0 0.00 0.00 0.00 96 1020.3
20260831105541 15 221 0.0 0.0 0.00 0.00 0.00 96 1020.2
20260831105109 15 221 0.0 0.0 0.00 0.00 0.00 96 1020.3
20260831104540 15 222 0.0 0.0 0.00 0.00 0.00 96 1020.1
20260831104036 15 221 0.0 0.0 0.00 0.00 0.00 96 1020.0
20260831103536 15 221 0.0 0.0 0.00 0.00 0.00 96 1020.0
20260831103039 15 221 0.0 0.0 0.00 0.00 0.00 96 1019.9
20260831102535 15 221 0.0 0.0 0.00 0.00 0.00 96 1019.9
20260831102036 15 222 0.0 0.0 0.00 0.00 0.00 96 1019.9
20260831101535 15 221 0.0 0.0 0.00 0.00 0.00 96 1019.9
20260831101034 15 222 0.0 0.0 0.00 0.00 0.00 96 1019.8
20260831100534 15 221 0.0 0.0 0.00 0.00 0.00 96 1019.7
20260831100033 15 222 0.0 0.0 0.00 0.00 0.00 96 1019.8
20260831095532 15 221 0.0 0.0 0.00 0.00 0.00 96 1019.6
20260831095032 15 221 0.0 0.0 0.00 0.00 0.00 96 1019.6
20260831094532 15 221 0.0 0.0 0.00 0.00 0.00 96 1019.6
20260831094031 15 222 0.0 0.0 0.00 0.00 0.00 96 1019.5
20260831093531 16 222 0.0 0.0 0.00 0.00 0.00 96 1019.5
20260831093030 15 222 0.0 0.0 0.00 0.00 0.00 96 1019.5
20260831092533 16 221 0.0 0.0 0.00 0.00 0.00 96 1019.5
20260831092030 16 221 0.0 0.0 0.00 0.00 0.00 96 1019.6
20260831091530 16 222 0.0 0.0 0.00 0.00 0.00 96 1019.5
20260831091030 16 222 0.0 0.0 0.00 0.00 0.00 96 1019.5
20260831090529 16 222 0.0 0.0 0.00 0.00 0.00 96 1019.5
20260831090033 16 222 0.0 0.0 0.00 0.00 0.00 96 1019.5
20260831085528 16 221 0.0 0.0 0.00 0.00 0.00 96 1019.5
20260831085027 16 221 0.0 0.0 0.00 0.00 0.00 96 1019.5
20260831084527 16 222 0.0 0.0 0.00 0.00 0.00 96 1019.4
20260831084027 16 222 0.0 0.0 0.00 0.00 0.00 96 1019.5
20260831083526 16 221 0.0 0.0 0.00 0.00 0.00 96 1019.5
20260831083036 16 222 0.0 0.0 0.00 0.00 0.00 96 1019.5
20260831082525 16 222 0.0 0.0 0.00 0.00 0.00 96 1019.6
20260831082029 16 222 0.0 0.0 0.00 0.00 0.00 96 1019.5
20260831081525 16 222 0.0 0.0 0.00 0.00 0.00 96 1019.5
20260831081026 16 222 0.0 0.0 0.00 0.00 0.00 96 1019.5
20260831080523 16 221 0.0 0.0 0.00 0.00 0.00 96 1019.6
20260831080022 16 222 0.0 0.0 0.00 0.00 0.00 96 1019.6
20260831075522 16 221 0.0 0.0 0.00 0.00 0.00 96 1019.6
20260831075021 16 221 0.0 0.0 0.00 0.00 0.00 96 1019.6
20260831074521 16 222 0.0 0.0 0.00 0.00 0.00 96 1019.6
20260831074021 16 221 0.0 0.0 0.00 0.00 0.00 96 1019.7
20260831073521 16 221 0.0 0.0 0.00 0.00 0.00 96 1019.7
20260831073019 17 221 0.0 0.0 0.00 0.00 0.00 96 1019.7
20260831072519 17 221 0.0 0.0 0.00 0.00 0.00 96 1019.6
20260831072019 17 222 0.0 0.0 0.00 0.00 0.00 96 1019.8
20260831071519 17 221 0.0 0.0 0.00 0.00 0.00 96 1019.7
20260831071019 17 222 0.0 0.0 0.00 0.00 0.00 96 1019.7
20260831070519 17 222 0.0 0.0 0.00 0.00 0.00 96 1019.7
20260831070025 17 221 0.0 0.0 0.00 0.00 0.00 96 1019.7
20260831065620 17 221 0.0 0.0 0.00 0.00 0.00 96 1019.7
20260831065016 17 222 0.0 0.0 0.00 0.00 0.00 96 1019.8
20260831064518 17 221 0.0 0.0 0.00 0.00 0.00 96 1019.8
20260831064017 17 221 0.0 0.0 0.00 0.00 0.00 96 1019.8
20260831063516 17 221 0.0 0.0 0.00 0.00 0.00 96 1019.8
20260831063016 17 221 0.0 0.0 0.00 0.00 0.00 96 1019.8
20260831062515 17 221 0.0 0.0 0.00 0.00 0.00 96 1020.0
20260831062015 17 221 0.0 0.0 0.00 0.00 0.00 96 1019.9
20260831061515 17 222 0.0 0.0 0.00 0.00 0.00 96 1019.9
20260831061013 17 222 0.0 0.0 0.00 0.00 0.00 96 1019.9
20260831060512 17 222 0.0 0.0 0.00 0.00 0.00 96 1019.8
20260831060012 17 222 0.0 0.0 0.00 0.00 0.00 96 1020.0
20260831055511 17 222 0.0 0.0 0.00 0.00 0.00 96 1020.1
20260831055011 17 221 0.0 0.0 0.00 0.00 0.00 96 1020.1
20260831054511 17 221 0.0 0.0 0.00 0.00 0.00 96 1020.2
20260831054012 17 222 0.0 0.0 0.00 0.00 0.00 96 1020.2
20260831053509 17 221 0.0 0.0 0.00 0.00 0.00 96 1020.3
20260831053010 17 221 0.0 0.0 0.00 0.00 0.00 96 1020.2
20260831052509 17 222 0.0 0.0 0.00 0.00 0.00 96 1020.1
20260831052008 17 221 0.0 0.0 0.00 0.00 0.00 96 1020.2
20260831051509 17 221 0.0 0.0 0.00 0.00 0.00 96 1020.3
20260831051008 17 222 0.0 0.0 0.00 0.00 0.00 96 1020.3
20260831050507 17 221 0.0 0.0 0.00 0.00 0.00 96 1020.1
20260831050006 17 221 0.0 0.0 0.00 0.00 0.00 96 1020.2
20260831045509 17 221 0.0 0.0 0.00 0.00 0.00 96 1020.0
20260831045007 17 222 0.0 0.0 0.00 0.00 0.00 96 1020.1
20260831044506 17 222 0.0 0.0 0.00 0.00 0.00 96 1019.9
20260831044005 17 221 0.0 0.0 0.00 0.00 0.00 96 1020.1
20260831043507 17 222 0.0 0.0 0.00 0.00 0.00 96 1020.0
20260831043005 17 221 0.0 0.0 0.00 0.00 0.00 96 1020.1
20260831042507 17 222 0.0 0.0 0.00 0.00 0.00 95 1020.3
20260831042003 17 222 0.0 0.0 0.00 0.00 0.00 95 1020.2
20260831041502 17 221 0.0 0.0 0.00 0.00 0.00 96 1020.3
20260831041005 17 221 0.0 0.0 0.00 0.00 0.00 96 1020.3
20260831040501 17 221 0.0 0.0 0.00 0.00 0.00 96 1020.5
20260831040100 17 222 0.0 0.0 0.00 0.00 0.00 96 1020.4
20260831035600 17 222 0.0 0.0 0.00 0.00 0.00 96 1020.4
20260831035059 17 221 0.0 0.0 0.00 0.00 0.00 96 1020.5
20260831034600 17 221 0.0 0.0 0.00 0.00 0.00 96 1020.4
20260831034059 17 221 0.0 0.0 0.00 0.00 0.00 96 1020.5
20260831033558 17 222 0.0 0.0 0.00 0.00 0.00 96 1020.6
20260831033058 17 221 0.0 0.0 0.00 0.00 0.00 96 1020.7
20260831032559 18 222 0.0 0.0 0.00 0.00 0.00 96 1020.6
20260831032100 18 221 0.0 0.0 0.00 0.00 0.00 96 1020.6
20260831031559 18 222 0.0 0.0 0.00 0.00 0.00 96 1020.7
20260831031057 18 221 0.0 0.0 0.00 0.00 0.00 96 1020.8
20260831030600 18 221 0.0 0.0 0.00 0.00 0.00 96 1020.7
20260831025557 18 221 0.0 1.6 0.00 0.00 0.00 96 1020.5
20260831025057 18 221 0.0 1.6 0.00 0.00 0.00 95 1020.5
20260831024617 18 221 0.0 1.6 0.00 0.00 0.00 95 1020.6
20260831024056 18 222 0.0 0.0 0.00 0.00 0.00 95 1020.4
20260831023557 18 221 0.0 0.0 0.00 0.00 0.00 95 1020.4
20260831023056 18 221 0.0 0.0 0.00 0.00 0.00 95 1020.4
20260831022556 18 221 0.0 0.0 0.00 0.00 0.00 95 1020.5
20260831022055 18 221 0.0 0.0 0.00 0.00 0.00 95 1020.4
20260831021556 18 221 0.0 0.0 0.00 0.00 0.00 95 1020.3
20260831021055 18 221 0.0 0.0 0.00 0.00 0.00 95 1020.1
20260831020555 18 222 0.0 0.0 0.00 0.00 0.00 95 1020.1
20260831020052 18 221 0.0 0.0 0.00 0.00 0.00 95 1020.3
20260831015550 18 221 0.0 0.0 0.00 0.00 0.00 95 1020.3
20260831015050 18 222 0.0 0.0 0.00 0.00 0.00 95 1020.5
20260831014548 18 221 0.0 0.0 0.00 0.00 0.00 95 1020.4
20260831014049 18 221 0.0 0.0 0.00 0.00 0.00 95 1020.4
20260831013547 18 221 0.0 0.0 0.00 0.00 0.00 95 1020.3
20260831013104 18 221 0.0 0.0 0.00 0.00 0.00 95 1020.2
20260831012547 18 221 0.0 0.0 0.00 0.00 0.00 94 1020.0
20260831012047 18 221 0.0 0.0 0.00 0.00 0.00 94 1020.2
20260831011554 18 221 0.0 0.0 0.00 0.00 0.00 94 1020.0
20260831011046 19 222 0.0 0.0 0.00 0.00 0.00 94 1020.0
20260831010547 19 222 0.0 0.0 0.00 0.00 0.00 94 1019.9
20260831010114 19 222 0.0 0.0 0.00 0.00 0.00 94 1019.9
20260831005545 19 222 0.0 0.0 0.00 0.00 0.00 94 1019.8
20260831005045 19 222 0.0 0.0 0.00 0.00 0.00 94 1019.6
20260831004547 19 222 0.0 0.0 0.00 0.00 0.00 93 1019.5
20260831004045 20 222 0.0 0.0 0.00 0.00 0.00 93 1019.7
20260831003544 20 222 0.0 0.0 0.00 0.00 0.00 93 1019.6
20260831003045 20 221 0.0 0.0 0.00 0.00 0.00 92 1019.6
20260831002545 20 221 0.0 0.0 0.00 0.00 0.00 92 1019.5
20260831002045 20 222 0.0 0.0 0.00 0.00 0.00 91 1019.6
20260831001545 20 222 0.0 0.0 0.00 0.00 0.00 91 1019.5
20260831001046 20 221 0.0 0.0 0.00 0.00 0.00 90 1019.5
20260831000543 21 222 0.0 0.0 0.00 0.00 0.00 90 1019.5
20260831000056 21 221 0.0 0.0 0.00 0.00 0.00 89 1019.4
20260830235542 21 222 0.0 0.0 0.00 0.00 0.00 89 1019.5
20260830235042 21 222 0.0 0.0 0.00 0.00 0.00 88 1019.6
20260830234542 21 221 0.0 0.0 0.00 0.00 0.00 87 1019.5
20260830234043 22 221 0.0 0.0 0.00 0.00 0.00 87 1019.5
20260830233543 22 222 0.0 0.0 0.00 0.00 0.00 86 1019.4
20260830233043 22 221 0.0 0.0 0.00 0.00 0.00 85 1019.3
20260830232548 22 222 0.0 0.0 0.00 0.00 0.00 85 1019.3
20260830232045 22 221 0.0 0.0 0.00 0.00 0.00 84 1019.2
20260830231544 22 222 0.0 3.2 0.00 0.00 0.00 83 1019.3
20260830231041 22 222 0.0 3.2 0.00 0.00 0.00 83 1019.4
20260830230541 23 170 0.0 3.2 0.00 0.00 0.00 82 1019.4
20260830230050 23 170 0.0 3.2 0.00 0.00 0.00 81 1019.4
20260830225541 23 217 0.0 4.8 0.00 0.00 0.00 81 1019.3
20260830225040 23 233 0.0 4.8 0.00 0.00 0.00 81 1019.2
20260830224540 23 158 1.6 4.8 0.00 0.00 0.00 81 1019.3
20260830224040 23 189 0.0 4.8 0.00 0.00 0.00 83 1019.2
20260830223542 23 188 0.0 4.8 0.00 0.00 0.00 82 1019.2
20260830223059 23 126 0.0 3.2 0.00 0.00 0.00 84 1019.3
20260830222542 22 195 0.0 3.2 0.00 0.00 0.00 85 1019.2
20260830222039 22 181 0.0 3.2 0.00 0.00 0.00 84 1019.2
20260830221539 22 219 0.0 1.6 0.00 0.00 0.00 84 1019.3
20260830221041 22 119 0.0 3.2 0.00 0.00 0.00 85 1019.4
20260830220539 22 191 0.0 3.2 0.00 0.00 0.00 84 1019.4
20260830220042 22 153 0.0 3.2 0.00 0.00 0.00 84 1019.4
20260830215539 22 226 0.0 3.2 0.00 0.00 0.00 84 1019.4
20260830215040 23 179 0.0 3.2 0.00 0.00 0.00 83 1019.4
20260830214538 23 179 1.6 3.2 0.00 0.00 0.00 83 1019.3
20260830214037 23 167 0.0 3.2 0.00 0.00 0.00 82 1019.4
20260830213538 23 169 0.0 3.2 0.00 0.00 0.00 82 1019.4
20260830213039 23 116 0.0 3.2 0.00 0.00 0.00 82 1019.3
20260830212537 23 134 0.0 6.4 0.00 0.00 0.00 82 1019.5
20260830212038 23 131 0.0 6.4 0.00 0.00 0.00 81 1019.4
20260830211537 23 153 0.0 3.2 0.00 0.00 0.00 81 1019.4
20260830211038 23 143 0.0 9.7 0.00 0.00 0.00 81 1019.3
20260830210538 23 153 0.0 9.7 0.00 0.00 0.00 80 1019.4
20260830210038 23 163 0.0 4.8 0.00 0.00 0.00 79 1019.3
20260830205536 23 139 0.0 4.8 0.00 0.00 0.00 79 1019.3
20260830205036 23 136 0.0 4.8 0.00 0.00 0.00 78 1019.3
20260830204537 23 139 1.6 4.8 0.00 0.00 0.00 77 1019.3
20260830204037 24 164 0.0 3.2 0.00 0.00 0.00 78 1019.4
20260830203535 24 208 0.0 6.4 0.00 0.00 0.00 77 1019.4
20260830203037 24 118 0.0 6.4 0.00 0.00 0.00 77 1019.4
20260830202538 24 188 0.0 3.2 0.00 0.00 0.00 77 1019.3
20260830202034 24 159 0.0 3.2 0.00 0.00 0.00 78 1019.4
20260830201537 24 123 0.0 3.2 0.00 0.00 0.00 77 1019.5
20260830201034 25 158 0.0 3.2 0.00 0.00 0.00 76 1019.5
20260830200533 25 195 0.0 4.8 0.00 0.00 0.00 76 1019.6